This is the latest recevied weather packets stored in our database for station/object KBTL-WX. If no packets are shown the sender has not sent any weather packets the latest 10 day(s).
| Time | Temp. | Humidity | Pressure | Rain* | Wind** | Luminosity | Snow |
|---|---|---|---|---|---|---|---|
| 1777336225 | 15.56° C | 87% | 973.7 hPa | 0 mm | - | - | - |
| 1777335317 | 15.56° C | 87% | 973.7 hPa | 0 mm | - | - | - |
| 1777334438 | 15.56° C | 87% | 973.7 hPa | 0 mm | - | - | - |
| 1777333517 | 16.11° C | 85% | 974.2 hPa | 0 mm | - | - | - |
| 1777332629 | 16.67° C | 88% | 973.4 hPa | 0 mm | - | - | - |
| 1777331716 | 16.67° C | 88% | 973.4 hPa | 0 mm | - | - | - |
| 1777330834 | 16.67° C | 88% | 973.4 hPa | 0 mm | - | - | - |
| 1777329916 | 16.67° C | 89% | 974.8 hPa | 0.25 mm | - | - | - |
| 1777329029 | 16.67° C | 84% | 975.2 hPa | 0.25 mm | - | - | - |
| 1777328114 | 16.67° C | 84% | 975.3 hPa | 0 mm | - | - | - |
| 1777327234 | 16.67° C | 84% | 975.3 hPa | 0 mm | - | - | - |
| 1777326316 | 17.22° C | 94% | 975.8 hPa | 3.3 mm | - | - | - |
| 1777325428 | 17.22° C | 81% | 977.7 hPa | 0.51 mm | - | - | - |
| 1777324515 | 16.67° C | 81% | 977.7 hPa | 0.51 mm | - | - | - |
| 1777323633 | 17.78° C | 81% | 977.7 hPa | 0.51 mm | - | - | - |
| 1777322715 | 17.22° C | 73% | 977.1 hPa | 2.54 mm | - | - | - |
| 1777321826 | 17.22° C | 72% | 978 hPa | 2.54 mm | - | - | - |
| 1777320915 | 19.44° C | 72% | 978.1 hPa | 0 mm | - | - | - |
| 1777320030 | 19.44° C | 50% | 977.1 hPa | 0 mm | - | - | - |
| 1777319115 | 18.89° C | 53% | 976.4 hPa | 0.25 mm | - | - | - |
| 1777318230 | 19.44° C | 53% | 976.4 hPa | 0.25 mm | - | - | - |
| 1777317315 | 21.11° C | 53% | 976.7 hPa | 0 mm | - | - | - |
| 1777316435 | 21.67° C | 53% | 976.7 hPa | 0 mm | - | - | - |
| 1777315514 | 21.11° C | 52% | 980.6 hPa | 0 mm | - | - | - |
| 1777314625 | 20.56° C | 49% | 978.8 hPa | 0 mm | - | - | - |
* Rain latest hour (hover to see other rain measurements)
** Current wind speed in m/s (hover to see current wind gust speed)